User: anonymous   Login
Location: Bangkok
(13.7500°N, 100.5170°E)
Time: 11:50:29
(UTC+07:00)
Language:

SPOT 1/Viking Rocket - Orbit

View from above orbital plane
View from above orbital plane
View from above satellite
View from above satellite

Ground track
Ground track

The orbit data is extracted from the following two-line orbital elements,

1 16615U 86019C   15115.24012758  .00000314  00000-0  13500-3 0  9995
2 16615 098.7125 173.2182 0011871 184.9213 215.3206 14.31462853527339
Epoch (UTC): 25 April 2015 05:45:47
Eccentricity: 0.0011871
inclination: 98.7125°
perigee height: 778 km
apogee height: 795 km
right ascension of ascending node: 173.2182°
argument of perigee: 184.9213°
revolutions per day: 14.31462853
mean anomaly at epoch: 215.3206°
orbit number at epoch: 52733

The dashed part of the orbit path shows where the satellite is in the earth's shadow,  

DLR